RYR6826 LZIB-EPGD

Flight info

Callsign RYR6826
Flight time N/A
Altitude 36000
Route BERVA P10 MAVOR DCT UPLAV DCT DESEN DCT ARMEX L617 XIDNA DCT ATMIR P733 IRLUN
Aircraft B738/M-SDE2E3FGHIRWXY/LB1

Departure

Time N/A
Airport M. R. Štefánik Airport (LZIB)

Arrival

Time 2026-04-29 22:25
Airport Gdańsk Lech Wałęsa Airport (EPGD)
Time Latitude Longitude Altitude Speed Heading
2026-04-29 21:58 53.42132 18.20507 19318 ft 264 kts 37°
2026-04-29 21:59 53.43567 18.22414 19019 ft 263 kts 37°
2026-04-29 21:59 53.45002 18.24316 18699 ft 262 kts 37°
2026-04-29 21:59 53.46431 18.26208 18359 ft 261 kts 37°
2026-04-29 21:59 53.47853 18.28089 18037 ft 260 kts 37°
2026-04-29 22:00 53.49269 18.29963 17729 ft 258 kts 37°
2026-04-29 22:00 53.50674 18.31822 17433 ft 256 kts 37°
2026-04-29 22:00 53.52068 18.33669 17138 ft 255 kts 37°
2026-04-29 22:00 53.53455 18.35506 16844 ft 253 kts 37°
2026-04-29 22:01 53.54837 18.37336 16556 ft 252 kts 37°
2026-04-29 22:01 53.56209 18.39157 16268 ft 251 kts 37°
2026-04-29 22:01 53.57574 18.40970 15980 ft 250 kts 37°
2026-04-29 22:01 53.58939 18.42782 15697 ft 251 kts 36°
2026-04-29 22:02 53.60349 18.44551 15416 ft 254 kts 33°
2026-04-29 22:02 53.61829 18.46249 15123 ft 261 kts 33°
2026-04-29 22:02 53.63354 18.47979 14816 ft 268 kts 33°
2026-04-29 22:02 53.64903 18.49742 14500 ft 268 kts 33°
2026-04-29 22:03 53.66447 18.51509 14172 ft 268 kts 33°
2026-04-29 22:03 53.67982 18.53272 13833 ft 267 kts 33°
2026-04-29 22:03 53.69510 18.55033 13512 ft 265 kts 33°
2026-04-29 22:03 53.71005 18.56759 13212 ft 263 kts 33°
2026-04-29 22:04 53.72510 18.58498 12916 ft 261 kts 33°
2026-04-29 22:04 53.74097 18.59964 12596 ft 260 kts 16°
2026-04-29 22:04 53.75878 18.60226 12420 ft 257 kts 358°
2026-04-29 22:04 53.77617 18.59474 12221 ft 262 kts 340°
2026-04-29 22:05 53.79271 18.58152 12021 ft 264 kts 339°
2026-04-29 22:05 53.80923 18.56770 11833 ft 265 kts 338°
2026-04-29 22:05 53.84233 18.53986 11460 ft 266 kts 338°
2026-04-29 22:06 53.85895 18.52596 11275 ft 267 kts 338°
2026-04-29 22:06 53.87566 18.51202 11086 ft 268 kts 338°
2026-04-29 22:06 53.89239 18.49807 10897 ft 268 kts 338°
2026-04-29 22:06 53.90917 18.48409 10705 ft 269 kts 338°
2026-04-29 22:07 53.92583 18.47021 10516 ft 264 kts 338°
2026-04-29 22:07 53.94218 18.45657 10316 ft 259 kts 339°
2026-04-29 22:07 53.95822 18.44318 10111 ft 254 kts 339°
2026-04-29 22:07 53.97396 18.43005 9928 ft 251 kts 339°
2026-04-29 22:08 53.98955 18.41704 9754 ft 250 kts 339°
2026-04-29 22:08 54.00514 18.40399 9581 ft 250 kts 339°
2026-04-29 22:08 54.02053 18.39109 9415 ft 250 kts 338°
2026-04-29 22:08 54.03613 18.37801 9233 ft 250 kts 338°
2026-04-29 22:09 54.05174 18.36490 9057 ft 250 kts 338°
2026-04-29 22:09 54.06758 18.35157 8869 ft 250 kts 338°
2026-04-29 22:09 54.08320 18.33843 8698 ft 251 kts 338°
2026-04-29 22:09 54.09883 18.32526 8518 ft 251 kts 338°
2026-04-29 22:10 54.11443 18.31211 8351 ft 250 kts 338°
2026-04-29 22:10 54.12981 18.29914 8165 ft 250 kts 338°
2026-04-29 22:10 54.14535 18.28602 7977 ft 249 kts 338°
2026-04-29 22:10 54.16080 18.27296 7784 ft 247 kts 338°
2026-04-29 22:11 54.17615 18.25997 7618 ft 245 kts 338°
2026-04-29 22:11 54.19145 18.24704 7200 ft 248 kts 339°
2026-04-29 22:11 54.20675 18.23505 6997 ft 236 kts 340°
2026-04-29 22:11 54.22161 18.22387 6913 ft 233 kts 341°
2026-04-29 22:12 54.23648 18.21275 6834 ft 234 kts 341°
2026-04-29 22:12 54.25152 18.20146 6763 ft 238 kts 340°
2026-04-29 22:12 54.26678 18.18997 6690 ft 240 kts 340°
2026-04-29 22:12 54.28208 18.17839 6617 ft 240 kts 340°
2026-04-29 22:13 54.29733 18.16681 6546 ft 239 kts 340°
2026-04-29 22:13 54.31254 18.15525 6484 ft 239 kts 340°
2026-04-29 22:13 54.32773 18.14368 6413 ft 239 kts 340°
2026-04-29 22:13 54.34281 18.13219 6345 ft 234 kts 340°
2026-04-29 22:14 54.35741 18.12103 6270 ft 225 kts 340°
2026-04-29 22:14 54.37102 18.10874 6190 ft 222 kts 324°
2026-04-29 22:14 54.38027 18.08749 6185 ft 225 kts 303°
2026-04-29 22:14 54.38668 18.06272 6119 ft 229 kts 298°
2026-04-29 22:15 54.39265 18.03715 6066 ft 233 kts 297°
2026-04-29 22:15 54.39873 18.01124 5996 ft 235 kts 297°
2026-04-29 22:15 54.40490 17.98525 5938 ft 235 kts 298°
2026-04-29 22:15 54.41109 17.95919 5875 ft 236 kts 297°
2026-04-29 22:16 54.41735 17.93301 5810 ft 237 kts 297°
2026-04-29 22:16 54.42357 17.90707 5710 ft 233 kts 297°
2026-04-29 22:16 54.42994 17.88182 5643 ft 226 kts 306°
2026-04-29 22:16 54.44064 17.86464 5609 ft 203 kts 341°
2026-04-29 22:17 54.45413 17.85974 5575 ft 198 kts
2026-04-29 22:17 54.46748 17.86415 5534 ft 196 kts 22°
2026-04-29 22:17 54.48000 17.87299 5497 ft 190 kts 22°
2026-04-29 22:17 54.49188 17.88141 5423 ft 180 kts 22°
2026-04-29 22:18 54.50245 17.89233 5335 ft 179 kts 50°
2026-04-29 22:18 54.50546 17.91283 5316 ft 188 kts 94°
2026-04-29 22:18 54.50256 17.93514 5286 ft 193 kts 95°
2026-04-29 22:18 54.49953 17.95792 5225 ft 197 kts 98°
2026-04-29 22:19 54.49597 17.98090 5176 ft 201 kts 100°
2026-04-29 22:19 54.49164 18.00391 5109 ft 203 kts 104°
2026-04-29 22:19 54.48656 18.02674 5024 ft 205 kts 107°
2026-04-29 22:19 54.48109 18.04957 4763 ft 205 kts 108°
2026-04-29 22:20 54.47557 18.07190 4510 ft 202 kts 108°
2026-04-29 22:20 54.47001 18.09388 4253 ft 199 kts 110°
2026-04-29 22:20 54.46431 18.11539 4004 ft 196 kts 110°
2026-04-29 22:20 54.45879 18.13680 3751 ft 196 kts 110°
2026-04-29 22:21 54.45339 18.15815 3551 ft 192 kts 111°
2026-04-29 22:21 54.44820 18.17862 3402 ft 182 kts 110°
2026-04-29 22:21 54.44333 18.19825 3242 ft 175 kts 110°
2026-04-29 22:21 54.43870 18.21711 3119 ft 173 kts 110°
2026-04-29 22:22 54.43403 18.23624 3006 ft 174 kts 110°
2026-04-29 22:22 54.42934 18.25546 2877 ft 174 kts 110°
2026-04-29 22:22 54.42467 18.27460 2740 ft 173 kts 110°
2026-04-29 22:22 54.42003 18.29355 2609 ft 170 kts 110°
2026-04-29 22:23 54.41549 18.31206 2429 ft 166 kts 111°
2026-04-29 22:23 54.41120 18.32953 2224 ft 152 kts 111°
2026-04-29 22:23 54.40721 18.34582 2023 ft 149 kts 111°
2026-04-29 22:23 54.40318 18.36221 1762 ft 148 kts 111°
2026-04-29 22:24 54.39921 18.37838 1514 ft 148 kts 111°
2026-04-29 22:24 54.39528 18.39449 1306 ft 146 kts 111°
2026-04-29 22:24 54.39134 18.41065 1093 ft 147 kts 112°
2026-04-29 22:24 54.38733 18.42670 834 ft 145 kts 113°
2026-04-29 22:25 54.38342 18.44268 600 ft 144 kts 113°
2026-04-29 22:25 54.37954 18.45827 448 ft 137 kts 113°
2026-04-29 22:25 54.37659 18.47018 452 ft 57 kts 112°
2026-04-29 22:25 54.37598 18.47503 461 ft 26 kts 85°
2026-04-29 22:26 54.37639 18.47717 462 ft 15 kts
2026-04-29 22:26 54.37696 18.47587 458 ft 13 kts 290°
2026-04-29 22:26 54.37729 18.47459 459 ft 11 kts 294°
2026-04-29 22:26 54.37759 18.47335 458 ft 11 kts 292°
2026-04-29 22:27 54.37789 18.47209 457 ft 11 kts 293°
2026-04-29 22:27 54.37820 18.47087 455 ft 11 kts 293°
2026-04-29 22:27 54.37850 18.46967 452 ft 11 kts 293°
2026-04-29 22:27 54.37880 18.46849 453 ft 11 kts 293°
2026-04-29 22:28 54.37909 18.46731 451 ft 11 kts 291°
2026-04-29 22:28 54.37938 18.46617 449 ft 10 kts 311°
2026-04-29 22:28 54.38015 18.46603 451 ft 15 kts 22°
2026-04-29 22:28 54.38086 18.46539 450 ft 13 kts 294°
2026-04-29 22:29 54.38108 18.46443 449 ft 13 kts 292°
2026-04-29 22:29 54.38143 18.46364 448 ft 3 kts
2026-04-29 22:29 54.38164 18.46378 448 ft 3 kts 20°
2026-04-29 22:29 54.38177 18.46384 448 ft 1 kts 13°
2026-04-29 22:30 54.38182 18.46385 448 ft 0 kts 11°